Location: Home
(42.5358°N, 72.7383°W)
Time: 11:11:07
(UTC-04:00)

Transit 4A - Visible Passes

Search period start: 17 July 2025 00:00
Search period end: 27 July 2025 00:00
Orbit: 868 x 973 km, 66.8° (Epoch: 16 July)

Date Brightness Start Highest point End Pass type
(mag) Time Alt. Az. Time Alt. Az. Time Alt. Az.
17 Jul 9.5 04:54:08 10° S 04:59:36 33° ESE 05:04:57 10° NE visible
19 Jul 10.6 03:31:30 10° ESE 03:31:44 10° E 03:31:58 10° E visible
20 Jul 10.2 03:36:32 10° SE 03:40:12 16° ESE 03:43:49 10° ENE visible
21 Jul 9.7 03:43:52 10° SSE 03:48:45 25° ESE 03:53:33 10° NE visible
22 Jul 9.1 03:51:47 10° S 03:57:22 36° ESE 04:02:51 10° NE visible
23 Jul 8.5 04:00:39 13° S 04:06:03 53° ESE 04:11:56 10° NE visible
24 Jul 10.2 02:27:32 10° ESE 02:29:27 11° E 02:31:21 10° E visible
24 Jul 8.0 04:09:38 15° SSW 04:14:48 77° ESE 04:20:52 10° NNE visible
25 Jul 9.9 02:35:05 13° SE 02:37:56 18° ESE 02:41:55 10° ENE visible
25 Jul 7.9 04:18:34 16° SW 04:23:37 76° WNW 04:29:41 10° NNE visible
26 Jul 9.3 02:43:57 20° SE 02:46:30 27° ESE 02:51:30 10° NE visible
26 Jul 8.2 04:27:27 15° SW 04:32:29 54° NW 04:38:25 10° NNE visible
